"Pseudo-MPEC" for C3ZR4U2

Created 2020 Nov 24 12:07:11 UT using Find_Orb

Click here for an explanation of pseudo-MPECs

 
 Astrometry: 
     C3ZR4U2  C2020 11 04.34390 01 56 39.91 +45 04 20.0    ~BO97 20.6 GVNEOCPG96
     C3ZR4U2  C2020 11 04.34917 01 56 38.40 +45 04 22.7    ~BO97       VNEOCPG96
     C3ZR4U2  C2020 11 04.35443 01 56 37.04 +45 04 26.1    ~BO97       VNEOCPG96
     C3ZR4U2  C2020 11 21.12905300 42 16.46 +45 18 11.3    ~BL47 21.51GVNEOCPG96
     C3ZR4U2  C2020 11 21.13431000 42 15.20 +45 18 09.0    ~BL47 22.05GVNEOCPG96
     C3ZR4U2  C2020 11 21.13957600 42 13.83 +45 18 06.5    ~BL47 21.29GVNEOCPG96
     C3ZR4U2  C2020 11 21.14484300 42 12.55 +45 18 05.0    ~BL47 21.28GVNEOCPG96
     C3ZR4U2 KC2020 11 21.17857200 42 04.47 +45 17 51.3    ~BL4q 21.38GVNEOCPV06
     C3ZR4U2 KC2020 11 21.18174600 42 03.68 +45 17 50.0    ~BL4q 21.59GVNEOCPV06
     C3ZR4U2 KC2020 11 21.18492600 42 02.92 +45 17 48.6    ~BL4q 21.31GVNEOCPV06
     C3ZR4U2 KC2020 11 21.27306300 41 41.69 +45 17 12.7    ~BL77 21.10GVNEOCPV06
     C3ZR4U2 KC2020 11 21.27629000 41 40.92 +45 17 11.1    ~BL77 22.34GVNEOCPV06
     C3ZR4U2 KC2020 11 21.27949000 41 40.15 +45 17 09.8    ~BL77 21.11GVNEOCPV06
     C3ZR4U2 KC2020 11 22.07313700 38 35.12 +45 11 39.6    ~BM2M 21.26GVNEOCPV06
     C3ZR4U2 KC2020 11 22.07551200 38 34.57 +45 11 38.6    ~BM2M 21.30GVNEOCPV06
     C3ZR4U2 KC2020 11 22.07788700 38 34.01 +45 11 37.6    ~BM2M 21.09GVNEOCPV06
     C3ZR4U2 KC2020 11 22.08026200 38 33.44 +45 11 36.6    ~BM2M 20.98GVNEOCPV06
     C3ZR4U2 KC2020 11 23.06159400 34 48.79 +45 04 15.8    ~BN27       VNEOCPV06
     C3ZR4U2 KC2020 11 23.06514700 34 47.97 +45 04 14.2    ~BN27 20.84GVNEOCPV06
     C3ZR4U2 KC2020 11 23.06869900 34 47.18 +45 04 12.6    ~BN27 20.73GVNEOCPV06
     C3ZR4U2 KC2020 11 23.07225000 34 46.35 +45 04 11.1    ~BN27 21.15GVNEOCPV06
     C3ZR4U2 KC2020 11 24.18339000 30 38.49 +44 55 13.9    ~BO57 21.90GVNEOCPG96
     C3ZR4U2 KC2020 11 24.18501200 30 38.10 +44 55 12.9    ~BO57 21.67GVNEOCPG96
     C3ZR4U2 KC2020 11 24.18663200 30 37.68 +44 55 11.9    ~BO57 21.29GVNEOCPG96
     C3ZR4U2 KC2020 11 24.18825400 30 37.38 +44 55 11.5    ~BO57 20.70GVNEOCPG96

Station data:
(G96) Mt. Lemmon Survey  (N32.442754 W110.788720)  US/Arizona.  Observers T.
   A. Pruyne, B. M. Africano, E. J. Christensen, G. A. Farneth, D. C. Fuls,
   A. R. Gibbs, A. D. Grauer, H. Gröller, J. A. Johnson, R. A. Kowalski, S.
   M. Larson, G. J. Leonard, D. Rankin, R. L. Seaman, F. C. Shelly. 1.5-m
   reflector + 10K CCD.
(V06) Catalina Sky Survey-Kuiper  (N32.416847 W110.732550)  US/Arizona.
   Observers T. A. Pruyne, B. M. Africano, E. J. Christensen, G. A. Farneth,
   D. C. Fuls, A. R. Gibbs, A. D. Grauer, H. Gröller, J. A. Johnson, R. A.
   Kowalski, S. M. Larson, G. J. Leonard, D. Rankin, R. L. Seaman, F. C.
   Shelly. 1.55-m reflector + CCD.

Orbital elements:  C3ZR4U2
   Perihelion 2021 May 8.536852 +/- 0.124 TT = 12:53:04 (JD 2459343.036852)
Epoch 2020 Nov 24.0 TT = JDT 2459177.5   Earth MOID: 0.3192   Ve: 0.0393
M 271.95773496 +/- 0.024            (J2000 ecliptic)          AutoNEOCP
n   0.53185900 +/- 0.000417         Peri.  167.09095 +/- 0.025
a   1.50870746 +/- 0.000788         Node    33.01570 +/- 0.023
e   0.5497713 +/- 0.000192          Incl.   58.64332 +/- 0.06
P   1.85/676.86d           H 19.0   G  0.15   U  7.5  
q 0.67926329 +/- 0.000614    Q 2.33815163 +/- 0.000995
From 25 observations 2020 Nov. 4-24; mean residual 0".27
Residuals in arcseconds: 
201104 G96  .08+  .06-    201121 V06  .03-  .22-    201123 V06  .01-  .16-    
201104 G96  .52-  .24-    201121 V06  .36-  .09+    201123 V06  .26+  .16-    
201104 G96  .44+  .30+    201121 V06  .32-  .16-    201123 V06  .10+  .06-    
201121 G96  .61+  .46+    201121 V06  .36-  .11-    201124 G96  .34+  .20+    
201121 G96  .70+  .20+    201122 V06  .08-  .14-    201124 G96  .04+  .02+    
201121 G96  .35-  .25-    201122 V06  .02+  .16-    201124 G96  .58-  .15-    
201121 G96  .44-  .31+    201122 V06  .01+  .17-    201124 G96  .08+  .27+    
201121 V06  .16+  .06-    201122 V06  .10-  .19-    
201121 V06  .10-  .10-    201123 V06  .04+  .15-    

Ephemerides (geocentric):
Date (UTC) HH   RA              Dec         delta   r     elong  mag " sig PA
---- -- -- --  -------------   -----------  ------ ------ -----  --- ---- ---
2020 11 24 12  00 29 29.461   +44 52 31.69  1.0758 1.8733 130.4 21.7 .187 169
2020 11 24 13  00 29 20.410   +44 52 10.37  1.0760 1.8730 130.4 21.7 .191 169
2020 11 24 14  00 29 11.371   +44 51 49.01  1.0762 1.8728 130.3 21.7 .195 168
2020 11 24 15  00 29 02.342   +44 51 27.60  1.0763 1.8726 130.3 21.7 .199 168
2020 11 24 16  00 28 53.324   +44 51 06.13  1.0765 1.8723 130.2 21.7 .203 168
2020 11 24 17  00 28 44.317   +44 50 44.62  1.0767 1.8721 130.2 21.7 .207 168
2020 11 24 18  00 28 35.321   +44 50 23.05  1.0769 1.8719 130.1 21.7 .212 168
2020 11 24 19  00 28 26.335   +44 50 01.44  1.0770 1.8716 130.1 21.7 .216 168
2020 11 24 20  00 28 17.360   +44 49 39.78  1.0772 1.8714 130.0 21.7 .220 168
2020 11 24 21  00 28 08.396   +44 49 18.07  1.0774 1.8712 130.0 21.7 .224 167
2020 11 24 22  00 27 59.443   +44 48 56.31  1.0775 1.8709 129.9 21.7 .229 167
2020 11 24 23  00 27 50.501   +44 48 34.50  1.0777 1.8707 129.9 21.7 .233 167
2020 11 25 00  00 27 41.569   +44 48 12.65  1.0779 1.8705 129.8 21.7 .237 167
2020 11 25 01  00 27 32.649   +44 47 50.74  1.0781 1.8702 129.8 21.7 .241 167
2020 11 25 02  00 27 23.739   +44 47 28.79  1.0782 1.8700 129.7 21.7 .246 167
2020 11 25 03  00 27 14.840   +44 47 06.80  1.0784 1.8698 129.7 21.7 .250 167
2020 11 25 04  00 27 05.952   +44 46 44.75  1.0786 1.8695 129.6 21.7 .254 166
2020 11 25 05  00 26 57.075   +44 46 22.66  1.0788 1.8693 129.6 21.7 .259 166
2020 11 25 06  00 26 48.209   +44 46 00.52  1.0789 1.8691 129.5 21.7 .263 166
2020 11 25 07  00 26 39.354   +44 45 38.33  1.0791 1.8688 129.5 21.7 .267 166
2020 11 25 08  00 26 30.509   +44 45 16.10  1.0793 1.8686 129.4 21.7 .272 166
2020 11 25 09  00 26 21.676   +44 44 53.82  1.0795 1.8684 129.4 21.7 .276 166
2020 11 25 10  00 26 12.853   +44 44 31.50  1.0796 1.8681 129.3 21.7 .281 166
2020 11 25 11  00 26 04.042   +44 44 09.13  1.0798 1.8679 129.3 21.7 .285 166
2020 11 25 12  00 25 55.241   +44 43 46.71  1.0800 1.8677 129.2 21.7 .289 165
2020 11 25 13  00 25 46.452   +44 43 24.25  1.0802 1.8674 129.2 21.7 .294 165
2020 11 25 14  00 25 37.673   +44 43 01.75  1.0803 1.8672 129.1 21.7 .298 165
2020 11 25 15  00 25 28.905   +44 42 39.20  1.0805 1.8670 129.1 21.7 .303 165
2020 11 25 16  00 25 20.148   +44 42 16.60  1.0807 1.8667 129.0 21.7 .307 165
2020 11 25 17  00 25 11.402   +44 41 53.96  1.0809 1.8665 129.0 21.7 .312 165
2020 11 25 18  00 25 02.668   +44 41 31.28  1.0811 1.8663 128.9 21.7 .316 165
2020 11 25 19  00 24 53.944   +44 41 08.55  1.0812 1.8660 128.9 21.7 .321 165
2020 11 25 20  00 24 45.231   +44 40 45.78  1.0814 1.8658 128.8 21.7 .325 164
2020 11 25 21  00 24 36.529   +44 40 22.97  1.0816 1.8656 128.8 21.7 .330 164
2020 11 25 22  00 24 27.838   +44 40 00.11  1.0818 1.8653 128.7 21.7 .334 164
2020 11 25 23  00 24 19.159   +44 39 37.21  1.0820 1.8651 128.7 21.7 .339 164
2020 11 26 00  00 24 10.490   +44 39 14.27  1.0822 1.8649 128.6 21.7 .344 164
2020 11 26 01  00 24 01.832   +44 38 51.28  1.0823 1.8646 128.6 21.7 .348 164
2020 11 26 02  00 23 53.185   +44 38 28.25  1.0825 1.8644 128.5 21.7 .353 164
2020 11 26 03  00 23 44.550   +44 38 05.18  1.0827 1.8642 128.5 21.7 .358 164
2020 11 26 04  00 23 35.925   +44 37 42.07  1.0829 1.8639 128.4 21.7 .362 163
2020 11 26 05  00 23 27.312   +44 37 18.91  1.0831 1.8637 128.4 21.7 .367 163
2020 11 26 06  00 23 18.709   +44 36 55.72  1.0833 1.8635 128.3 21.7 .371 163
2020 11 26 07  00 23 10.118   +44 36 32.48  1.0834 1.8632 128.3 21.7 .376 163
2020 11 26 08  00 23 01.537   +44 36 09.20  1.0836 1.8630 128.2 21.7 .381 163
2020 11 26 09  00 22 52.968   +44 35 45.88  1.0838 1.8628 128.1 21.7 .386 163
2020 11 26 10  00 22 44.410   +44 35 22.52  1.0840 1.8625 128.1 21.7 .390 163
2020 11 26 11  00 22 35.863   +44 34 59.12  1.0842 1.8623 128.0 21.7 .395 163